Location: Grange Rosano
(44.4500°N, 6.9667°E)
Time: 21:24:51
(UTC+00:00)

Cosmos 1606 Rocket - Pass Details

Date: 26 May 2022
Orbit: 601 x 632 km, 82.5° (Epoch: 01 July)

Event Time Altitude Azimuth Distance (km) Brightness Sun altitude
Rises 02:27:51 0° 351° (N) 2,916 7.6 -12.8°
Reaches altitude 10° 02:30:06 10° 351° (N) 2,000 6.7 -12.5°
Maximum altitude 02:34:32 86° 264° (W) 624 3.5 -12.0°
Drops below altitude 10° 02:38:53 10° 174° (S) 1,963 5.8 -11.4°
Enters shadow 02:40:16 - 174° (S) 2,521 6.3 -11.3°
